ARIANE 44LP DEB, 33546

Orbit data source: Space-Track

ARIANE 44LP DEB, 33546 is space debris in HEO originally from a launch on Sun, 11 Dec 1988 UTC launched from the French Guiana (FRGUI). Debris objects in space refer to the collection of defunct objects orbiting the Earth. Examples of debris include non-operational satellites, rocket bodies, and fragments generated from explosions, collisions, or faulty payload assembly.

Loading next visibility...
Identifier
33546, 1988-109V
Orbit
HEO
Country
Flag of FRFR
Related business
Manufacturer
Unknown
Mission
Spacecraft
Bus & Motor
Unknown
Mass
Unknown
Launch date (UTC)
1988-12-11 (37 years ago)
Launch vehicle
Unknown
Launch site
French Guiana (FRGUI)
Object type
Payload
Rocket body
Debris
Shape & HBR
Unknown shape, 1.1 m
Radar Cross Section
Small (<0.1 m²)

Expand to show TLE details & history
Last TLE update: 3 days ago

TLE from 3 days ago
0 ARIANE 44LP DEB
1 33546U 88109V   25337.98522895 -.00000024  00000-0  18747-2 0  9991
2 33546   7.3613 314.9902 7125979 264.7463  27.6402  2.23379076 17089
Epoch: 2025-12-03T23:38Z
TLE epoch observation values (Epoch: 2025-12-03T23:38:43.781Z)
Latitude
2.36241°
Longitude
-94.23169°
Altitude
10,679.569 km
Speed
5.532 km/s
True Right ascension
22h 13m 59s
True Declination
2° 21' 23"
Sunlit
Object was in daylight at epoch
Visualization orbit readout
Latitude
Unknown
Longitude
Unknown
Altitude
Unknown
Speed
Unknown
Apparent Right ascension
Unknown
Apparent Declination
Unknown
Sunlit
N/A
Visualization observer readout
Local Sidereal Time
22:41:55
Azimuth
Unknown
Elevation
Unknown
Doppler factor
Unknown
Orbital elements
Apogee altitude
35,965.121 km
Perigee altitude
727.758 km
Semi-major axis
24,724.577 km
Eccentricity
0.7126
Inclination
7.3613°
RAAN
314.9902°
Arg. of periapsis
264.7463°
True anomaly
113.99962°
Mean anomaly
27.6402°
Eccentric anomaly
64.48806°
Mean motion
0.55828 °/min
Orbital period
644.84 mins
BSTAR
0.0018747
Loading maneuver chart data...
Computing Atmospheric mass density...
Loading historical data...
Loading historical data...
Loading historical data...
Loading historical data...
Loading historical data...
Loading historical data...
Loading historical data...

Documentation

Showing up to 5 results
|